Voltar ao catálogo

STARLINK-32035

AtivoComunicaçõesVLEO
NORAD 60107·PAYLOAD·🇺🇸 United States

Lançado Jun 23, 2024 de Cape Canaveral Space Force Station

Loading…

Próximas Passagens (próximas 24 horas)

TLE

AtualizadoSource: CelesTrak SupGP

Época: Sep 14, 2026, 22:28 UTC

1 60107C 24117S   26257.93659722  .00028171  00000+0  83217-3 0  2573
2 60107  53.1578 235.7074 0001426  94.1101 301.7393 15.34381786    15

Acompanhe STARLINK-32035 em tempo real com AllMySat

Download on the App Store